Tracking 25734 objects as of 28-May-2022
HD Live streaming from Space Station
objects crossing your sky now

SSC

Track SSC now!
10-day predictions
SSC is classified as:


NORAD ID: 13874
Int'l Code: 1983-008H
Perigee: 390.4 km
Apogee: 1,696.6 km
Inclination: 63.3 °
Period: 105.9 minutes
Semi major axis: 7414 km
RCS: Unknown
Launch date: February 9, 1983
Source: United States (US)
Launch site: AIR FORCE WESTERN TEST RANGE (AFWTR)
aabbcc
Your satellite tracking list
Your tracking list is empty




NASA's NSSDC Master Catalog

Two Line Element Set (TLE):
1 13874U 83008H   22147.57359177  .00005476  00000-0  43743-3 0  9998
2 13874  63.2960  85.0317 0880849 108.5844 261.2854 13.59828310148496
Source of the keplerian elements: McCants